Location: Chester
(43.2628°N, 72.5951°W)
Time: 17:16:22
(UTC-05:00)

ISS - Pass Details

Date: 30 January 2021
Orbit: 417 x 422 km, 51.6° (Epoch: 08 March)

Event Time Altitude Azimuth Distance (km) Brightness Sun altitude
Rises 17:27:41 0° 296° (WNW) 2,373 0.8 -5.5°
Reaches altitude 10° 17:30:12 10° 315° (NW) 1,509 -0.5 -5.9°
Maximum altitude 17:32:45 20° 4° (N) 1,059 -1.9 -6.4°
Drops below altitude 10° 17:35:18 10° 53° (NE) 1,510 -1.5 -6.8°
Enters shadow 17:35:44 - 57° (ENE) 1,640 -1.4 -6.9°
